Wellsville, NY

6:14 PM EDT on August 24, 2016 (GMT -0400)
Wellsville Municipal-Tarantine

Weather History for KELZ - January, 2013

Change the Weather History Date:

Wednesday, January 23, 2013

  Actual Average (KBFD) Record (KBFD)
Temperature  
Mean Temperature 4 °F 21 °F  
Max Temperature 9 °F 29 °F 53 °F (1967)
Min Temperature 0 °F 14 °F -18 °F (1976)
Degree Days  
Heating Degree Days 60 38  
Month to date heating degree days 874  
Since 1 July heating degree days 3930  
Cooling Degree Days 0 0  
Month to date cooling degree days 0  
Year to date cooling degree days 0  
Moisture  
Dew Point -5 °F    
Average Humidity 68    
Maximum Humidity 76    
Minimum Humidity 53    
Precipitation  
Precipitation 0.00 in 0.11 in 0.88 in (1965)
Month to date precipitation 2.49  
Year to date precipitation 2.49  
Sea Level Pressure  
Sea Level Pressure 30.10 in    
Wind  
Wind Speed 9 mph (WSW)    
Max Wind Speed 13 mph    
Max Gust Speed 21 mph    
Visibility 7 miles    
Events Snow    
T = Trace of Precipitation, MM = Missing Value Source: NWS Daily Summary

Daily Weather History Graph

Daily Weather History Graph

Search for Another Location

Airport or City:

Trip Planner

Search our weather history database for the weather conditions in past years. The results will help you decide how hot, cold, wet, or windy it might be!

Date:

Astronomy

Jan. 23, 2013 Rise Set
Actual Time 7:32 AM EST 5:15 PM EST
Civil Twilight 7:02 AM EST 5:45 PM EST
Nautical Twilight 6:28 AM EST 6:19 PM EST
Astronomical Twilight 5:55 AM EST 6:52 PM EST
Moon 2:23 PM EST (1/23) 4:43 AM EST (1/23)
Length of Visible Light 10h 43m
Length of Day
9h 42m
Waxing Gibbous, 89% of the Moon is Illuminated
Jan 23
Waxing Gibbous
Jan 26
Full
Feb 3
Last Quarter
Feb 10
New
Feb 17
First Quarter

Hourly Weather History & Observations

Time (EST) Temp. Windchill Dew Point Humidity Pressure Visibility Wind Dir Wind Speed Gust Speed Precip Events Conditions
12:07 AM 1.4 °F -14.5 °F -5.8 °F 72% 30.01 in 3.0 mi WSW 10.4 mph - 0.00 in Snow Light Snow
12:51 AM 1.4 °F -14.5 °F -5.8 °F 72% 30.00 in 7.0 mi WSW 10.4 mph - 0.00 in   Overcast
12:56 AM 1.9 °F -11.8 °F -5.1 °F 72% 30.15 in 7.0 mi WSW 8.1 mph - 0.00 in   Overcast
1:36 AM 1.4 °F -12.5 °F -5.8 °F 72% 30.00 in 2.5 mi WSW 8.1 mph - 0.00 in Snow Light Snow
1:47 AM 1.4 °F -13.5 °F -5.8 °F 72% 30.00 in 1.8 mi WSW 9.2 mph - 0.00 in Snow Light Snow
1:54 AM 1.4 °F -12.5 °F -5.8 °F 72% 30.01 in 3.0 mi WSW 8.1 mph - 0.00 in Snow Light Snow
1:55 AM 1.9 °F -12.9 °F -5.1 °F 72% 30.17 in 3.0 mi WSW 9.2 mph - 0.00 in Snow Light Snow
2:13 AM 1.4 °F -12.5 °F -5.8 °F 72% 30.01 in 6.0 mi WSW 8.1 mph - 0.00 in   Haze
2:56 AM 1.9 °F -11.8 °F -5.1 °F 72% 30.17 in 6.0 mi WSW 8.1 mph - 0.00 in   Haze
3:45 AM 1.4 °F -13.5 °F -5.8 °F 72% 30.02 in 4.0 mi SW 9.2 mph - 0.00 in Snow Light Snow
3:56 AM 1.0 °F -12.9 °F -6.0 °F 72% 30.17 in 5.0 mi SW 8.1 mph - 0.00 in Snow Light Snow
4:32 AM -0.4 °F -13.4 °F -7.6 °F 72% 30.02 in 10.0 mi SW 6.9 mph - N/A   Partly Cloudy
4:56 AM -0.0 °F -15.3 °F -7.1 °F 72% 30.18 in 10.0 mi SW 9.2 mph - N/A   Mostly Cloudy
5:56 AM -0.0 °F -14.2 °F -7.1 °F 72% 30.19 in 8.0 mi SW 8.1 mph - N/A   Overcast
6:34 AM -0.4 °F -15.7 °F -7.6 °F 72% 30.03 in 10.0 mi WSW 9.2 mph - 0.00 in   Mostly Cloudy
6:56 AM -0.0 °F -14.2 °F -7.1 °F 72% 30.19 in 4.0 mi WSW 8.1 mph - 0.00 in Snow Light Snow
7:31 AM -0.4 °F -16.7 °F -7.6 °F 72% 30.03 in 8.0 mi WSW 10.4 mph - 0.00 in   Overcast
7:56 AM 1.0 °F -14.0 °F -6.0 °F 72% 30.19 in 2.5 mi WSW 9.2 mph - 0.00 in Snow Light Snow
8:02 AM 1.4 °F -12.5 °F -5.8 °F 72% 30.03 in 3.0 mi WSW 8.1 mph - 0.00 in   Haze
8:41 AM 1.4 °F -13.5 °F -5.8 °F 72% 30.04 in 10.0 mi WSW 9.2 mph - 0.00 in   Scattered Clouds
8:56 AM 1.0 °F -14.9 °F -6.0 °F 72% 30.21 in 10.0 mi WSW 10.4 mph - 0.00 in   Mostly Cloudy
9:09 AM 1.4 °F -14.5 °F -5.8 °F 72% 30.05 in 4.0 mi WSW 10.4 mph 16.1 mph 0.00 in   Haze
10:56 AM 7.0 °F -6.6 °F -2.9 °F 64% 30.21 in 10.0 mi WNW 9.2 mph - 0.00 in   Mostly Cloudy
11:10 AM 5.0 °F -10.0 °F -5.8 °F 61% 30.06 in 10.0 mi WNW 10.4 mph - 0.00 in   Scattered Clouds
11:56 AM 7.0 °F -9.1 °F -5.1 °F 58% 30.19 in 10.0 mi WNW 12.7 mph - 0.00 in   Overcast
12:56 PM 8.1 °F -5.3 °F -2.9 °F 61% 30.16 in 5.0 mi West 9.2 mph - 0.00 in Snow Light Snow
1:56 PM 9.0 °F -3.2 °F -4.0 °F 56% 30.15 in 10.0 mi WSW 8.1 mph 20.7 mph 0.00 in   Overcast
2:56 PM 8.1 °F -4.3 °F -2.0 °F 64% 30.15 in 3.0 mi WNW 8.1 mph - 0.00 in Snow Light Snow
3:56 PM 9.0 °F -3.2 °F -5.1 °F 53% 30.15 in 10.0 mi West 8.1 mph 18.4 mph 0.00 in   Mostly Cloudy
4:17 PM 8.6 °F -3.7 °F -2.2 °F 62% 30.00 in 5.0 mi WNW 8.1 mph - 0.00 in Snow Light Snow
4:43 PM 8.6 °F -1.3 °F -4.0 °F 57% 30.00 in 10.0 mi WSW 5.8 mph - 0.00 in   Overcast
4:56 PM 8.1 °F -5.3 °F -5.1 °F 55% 30.15 in 10.0 mi WSW 9.2 mph - 0.00 in   Overcast
5:56 PM 7.0 °F -1.7 °F -4.0 °F 61% 30.14 in 10.0 mi WSW 4.6 mph - N/A   Overcast
6:56 PM 6.1 °F -5.6 °F -4.0 °F 63% 30.14 in 10.0 mi SW 6.9 mph - N/A   Overcast
7:56 PM 5.0 °F -6.9 °F -4.0 °F 66% 30.13 in 10.0 mi SW 6.9 mph - N/A   Clear
8:56 PM 5.0 °F -9.1 °F -2.0 °F 73% 30.13 in 10.0 mi SW 9.2 mph - N/A   Clear
9:56 PM 3.9 °F -5.3 °F -2.0 °F 76% 30.12 in 10.0 mi WSW 4.6 mph - N/A   Clear
10:56 PM 3.9 °F - -2.0 °F 76% 30.11 in 10.0 mi Calm Calm - N/A   Clear
11:56 PM 3.0 °F - -2.9 °F 76% 30.11 in 10.0 mi Calm Calm - N/A   Clear